STARLINK-3698, 52108

Orbit data source: Space-Track

STARLINK-3698, 52108 is a payload satellite owned by SpaceX/Seattle (US) in LEO that was launched on Sat, 19 Mar 2022 UTC via an FALCON 9 launch vehicle from the Air Force Eastern Test Range (AFETR). Payload-class satellites include a variety of spacecraft equipped with specific instruments for various scientific and technological missions. These include communications satellites like Starlink; space stations such as the ISS; scientific satellites like the Hubble; Earth observation satellites from companies like Planet Labs, Umbra, and HawkEye 360; GPS; miniature CubeSats for education and research; and military/defense satellites.

Loading next visibility...
Identifier
52108, 2022-029W
Orbit
LEO
Country
Flag of USUS
Related business
Manufacturer
SpaceX/Seattle
Mission
Operational Commercial Communications
Bus & Motor
STARLINK, Unknown motor
Mass
297 kg wet, ~275 kg dry
Launch date (UTC)
2022-03-19 (4 years ago)
Launch vehicle
FALCON 9
Launch site
Air Force Eastern Test Range (AFETR)
Object type
Payload
Rocket body
Debris
Shape & HBR
Box + 1 Pan, 10.1 m
Radar Cross Section
13.562 m², Large (>1 m²)

Expand to show TLE details & history
Last TLE update: 2 days ago

TLE from 2 days ago
0 STARLINK-3698
1 52108U 22029W   26171.17259731  .00080377  00000-0  49217-2 0  9993
2 52108  53.1593 338.9318 0001649 138.4346 221.6771 15.09497714236259
Epoch: 2026-06-20T04:08Z
TLE epoch observation values (Epoch: 2026-06-20T04:08:32.407Z)
Latitude
-0.00005°
Longitude
8.4057°
Altitude
539.477 km
Speed
7.593 km/s
True Right ascension
22h 35m 43s
True Declination
0° 00' 00"
Sunlit
Object was in daylight at epoch
Visualization orbit readout
Latitude
Unknown
Longitude
Unknown
Altitude
Unknown
Speed
Unknown
Apparent Right ascension
Unknown
Apparent Declination
Unknown
Sunlit
N/A
Visualization observer readout
Local Sidereal Time
23:08:16
Azimuth
Unknown
Elevation
Unknown
Doppler factor
Unknown
Orbital elements
Apogee altitude
539.129 km
Perigee altitude
536.848 km
Semi-major axis
6,916.125 km
Eccentricity
0.00016
Inclination
53.1593°
RAAN
338.9318°
Arg. of periapsis
138.4346°
True anomaly
221.66454°
Mean anomaly
221.6771°
Eccentric anomaly
221.67082°
Mean motion
3.77354 °/min
Orbital period
95.4 mins
BSTAR
0.0049217
Loading maneuver chart data...
Computing Atmospheric mass density...

Documentation

Showing up to 5 results
|